Location: Chervonnoye
(48.6000°N, 34.4000°E)
Time: 22:20:25
(UTC+00:00)

CAS-4B - Pass Details

Date: 10 December 2021
Orbit: 529 x 538 km, 43.0° (Epoch: 23 January)

Event Time Altitude Azimuth Distance (km) Brightness Sun altitude
Rises 15:51:19 0° 227° (SW) 2,676 ? -19.6°
Reaches altitude 10° 15:53:51 10° 214° (SSW) 1,785 ? -20.0°
Maximum altitude 15:57:09 24° 160° (SSE) 1,139 ? -20.5°
Enters shadow 15:57:26 24° 153° (SSE) 1,145 ? -20.6°
